Location: Asheville, NC
(35.6000°N, 82.5500°W)
Time: 22:40:42
(UTC-05:00)

N. Korean satellite - Pass Details

Date: 12 October 2017
Orbit: 461 x 513 km, 97.2° (Epoch: 12 December)

Event Time Altitude Azimuth Distance (km) Brightness Sun altitude
Rises 20:10:18 0° 190° (S) 2,558 10.3 -15.4°
Reaches altitude 10° 20:12:35 10° 202° (SSW) 1,672 9.5 -15.9°
Maximum altitude 20:15:43 28° 263° (W) 931 8.8 -16.5°
Drops below altitude 10° 20:18:50 10° 324° (NW) 1,656 9.8 -17.2°
Sets 20:21:05 0° 336° (NNW) 2,530 10.6 -17.6°
